Weather History for EGKK - August, 2014

Change the Weather History Date:

Friday, August 22, 2014

  Actual Average Record
Temperature  
Mean Temperature 60 °F -  
Max Temperature 68 °F 67 °F 78 °F (2003)
Min Temperature 53 °F 49 °F 46 °F (1999)
Degree Days  
Heating Degree Days 4    
Growing Degree Days 10 (Base 50)    
Moisture  
Dew Point 47 °F    
Average Humidity 66    
Maximum Humidity 88    
Minimum Humidity 40    
Precipitation  
Precipitation 0.00 in 0.09 in - ()
Sea Level Pressure  
Sea Level Pressure 29.87 in    
Wind  
Wind Speed 7 mph ()    
Max Wind Speed 15 mph    
Max Gust Speed -    
Visibility 5.8 miles    
Events      
Averages and records for this station are not official NWS values.
T = Trace of Precipitation, MM = Missing Value Source: Averaged Metar Reports

Daily Weather History Graph

Daily Weather History Graph

Search for Another Location

Airport or City:

Trip Planner

Search our weather history database for the weather conditions in past years. The results will help you decide how hot, cold, wet, or windy it might be!

Date:

Astronomy

Aug. 22, 2014 Rise Set
Actual Time 5:57 AM BST 8:08 PM BST
Civil Twilight 5:21 AM BST 8:44 PM BST
Nautical Twilight 4:36 AM BST 9:29 PM BST
Astronomical Twilight 3:44 AM BST 10:20 PM BST
Moon 2:58 AM BST (8/22) 6:14 PM BST (8/22)
Length of Visible Light 15h 22m
Length of Day
14h 10m
Waning Crescent, 9% of the Moon is Illuminated
Aug 22
Waning Crescent
Aug 25
New
Sep 2
First Quarter
Sep 9
Full
Sep 16
Last Quarter

Hourly Weather History & Observations

Time (BST) Temp. Dew Point Humidity Pressure Visibility Wind Dir Wind Speed Gust Speed Precip Events Conditions
12:20 AM 57.2 °F 50.0 °F 77% 29.89 in - SW 8.1 mph - N/A   Clear
12:50 AM 55.4 °F 50.0 °F 82% 29.89 in 3.7 mi SW 6.9 mph - N/A   Partly Cloudy
1:20 AM 55.4 °F 48.2 °F 77% 29.89 in 5.0 mi SW 8.1 mph - N/A   Partly Cloudy
1:50 AM 55.4 °F 48.2 °F 77% 29.89 in - SW 6.9 mph - N/A   Clear
2:20 AM 55.4 °F 48.2 °F 77% 29.86 in - SW 5.8 mph - N/A   Clear
2:50 AM 55.4 °F 48.2 °F 77% 29.86 in - SSW 4.6 mph - N/A   Clear
3:20 AM 53.6 °F 48.2 °F 82% 29.86 in - SW 4.6 mph - N/A   Clear
3:50 AM 53.6 °F 48.2 °F 82% 29.86 in - SW 3.5 mph - N/A   Clear
4:20 AM 53.6 °F 50.0 °F 88% 29.83 in - SW 3.5 mph - N/A   Clear
4:50 AM 53.6 °F 50.0 °F 88% 29.83 in - SW 4.6 mph - N/A   Clear
5:20 AM 53.6 °F 50.0 °F 88% 29.83 in - SW 4.6 mph - N/A   Clear
5:50 AM 53.6 °F 50.0 °F 88% 29.83 in - SSW 4.6 mph - N/A   Clear
6:20 AM 53.6 °F 50.0 °F 88% 29.83 in - SW 4.6 mph - N/A   Clear
6:50 AM 55.4 °F 50.0 °F 82% 29.83 in 4.3 mi SW 5.8 mph - N/A   Partly Cloudy
7:20 AM 55.4 °F 50.0 °F 82% 29.83 in 6.2 mi SW 5.8 mph - N/A   Partly Cloudy
7:50 AM 55.4 °F 51.8 °F 88% 29.83 in 4.3 mi WSW 5.8 mph - N/A   Partly Cloudy
8:20 AM 57.2 °F 51.8 °F 82% 29.83 in 6.2 mi WSW 6.9 mph - N/A   Partly Cloudy
8:50 AM 57.2 °F 51.8 °F 82% 29.83 in 6.2 mi West 9.2 mph - N/A   Scattered Clouds
9:20 AM 59.0 °F 51.8 °F 77% 29.83 in 6.2 mi West 12.7 mph - N/A   Scattered Clouds
9:50 AM 59.0 °F 51.8 °F 77% 29.83 in 6.2 mi West 11.5 mph - N/A   Scattered Clouds
10:20 AM 59.0 °F 50.0 °F 72% 29.83 in 6.2 mi WNW 11.5 mph - N/A   Scattered Clouds
10:50 AM 60.8 °F 50.0 °F 68% 29.86 in 6.2 mi WNW 11.5 mph - N/A   Scattered Clouds
11:20 AM 60.8 °F 50.0 °F 68% 29.86 in 6.2 mi WNW 12.7 mph - N/A   Scattered Clouds
11:50 AM 62.6 °F 50.0 °F 63% 29.86 in 6.2 mi West 11.5 mph - N/A   Scattered Clouds
12:20 PM 64.4 °F 48.2 °F 56% 29.86 in 6.2 mi WNW 12.7 mph - N/A   Scattered Clouds
12:50 PM 66.2 °F 48.2 °F 52% 29.86 in 6.2 mi WSW 10.4 mph - N/A   Scattered Clouds
1:20 PM 66.2 °F 48.2 °F 52% 29.86 in 6.2 mi WNW 11.5 mph - N/A   Scattered Clouds
1:50 PM 66.2 °F 48.2 °F 52% 29.86 in 6.2 mi WNW 12.7 mph - N/A   Scattered Clouds
2:20 PM 68.0 °F 44.6 °F 43% 29.86 in 6.2 mi West 15.0 mph - N/A   Partly Cloudy
2:50 PM 66.2 °F 42.8 °F 43% 29.86 in - WNW 15.0 mph - N/A   Clear
3:20 PM 68.0 °F 42.8 °F 40% 29.86 in - NW 13.8 mph - N/A   Clear
3:50 PM 66.2 °F 42.8 °F 43% 29.86 in - WNW 12.7 mph - N/A   Clear
4:20 PM 66.2 °F 42.8 °F 43% 29.86 in - WNW 12.7 mph - N/A   Clear
4:50 PM 66.2 °F 42.8 °F 43% 29.86 in - WNW 11.5 mph - N/A   Clear
5:20 PM 66.2 °F 42.8 °F 43% 29.86 in - WNW 10.4 mph - N/A   Clear
5:50 PM 66.2 °F 42.8 °F 43% 29.86 in - WNW 10.4 mph - N/A   Clear
6:20 PM 66.2 °F 41.0 °F 40% 29.86 in - WNW 10.4 mph - N/A   Clear
6:50 PM 64.4 °F 44.6 °F 49% 29.89 in - WNW 6.9 mph - N/A   Clear
7:20 PM 64.4 °F 44.6 °F 49% 29.89 in - WNW 9.2 mph - N/A   Clear
7:50 PM 62.6 °F 44.6 °F 52% 29.89 in - WNW 5.8 mph - N/A   Clear
8:20 PM 62.6 °F 46.4 °F 55% 29.89 in - WNW 5.8 mph - N/A   Clear
8:50 PM 59.0 °F 46.4 °F 63% 29.92 in - WSW 4.6 mph - N/A   Clear
9:20 PM 59.0 °F 44.6 °F 59% 29.92 in - WNW 5.8 mph - N/A   Clear
9:50 PM 55.4 °F 44.6 °F 67% 29.92 in - Calm Calm - N/A   Clear
10:20 PM 55.4 °F 44.6 °F 67% 29.92 in - WNW 5.8 mph - N/A   Clear
10:50 PM 57.2 °F 46.4 °F 67% 29.92 in - NW 4.6 mph - N/A   Clear
11:20 PM 55.4 °F 46.4 °F 72% 29.95 in - NW 5.8 mph - N/A   Clear
11:50 PM 55.4 °F 46.4 °F 72% 29.95 in - Variable 3.5 mph - N/A   Clear